Location: Coffee Ditch
(40.9640°N, 122.7500°W)
Time: 08:42:58
(UTC+00:00)

Cosmos 1602 Rocket - Visible Passes

Search period start: 17 December 2025 00:00
Search period end: 27 December 2025 00:00
Orbit: 597 x 625 km, 82.5° (Epoch: 17 December)

Date Brightness Start Highest point End Pass type
(mag) Time Alt. Az. Time Alt. Az. Time Alt. Az.
17 Dec 6.8 02:12:26 10° WNW 02:13:49 11° W 02:15:13 10° WSW visible
17 Dec 5.1 13:02:17 10° SSE 13:06:19 35° E 13:10:21 10° NNE visible
17 Dec 4.9 14:40:53 10° WSW 14:44:07 19° WNW 14:47:21 10° NNW visible
18 Dec 3.9 13:16:43 10° S 13:21:06 64° E 13:25:29 10° NNE visible
18 Dec 5.4 14:57:46 10° W 14:59:15 11° WNW 15:00:45 10° NW visible
19 Dec 3.4 13:31:33 10° SSW 13:35:58 71° W 13:40:23 10° N visible
20 Dec 6.1 01:17:39 10° NW 01:21:09 24° W 01:24:36 10° SW visible
20 Dec 6.2 12:10:41 10° SE 12:13:34 17° E 12:16:27 10° NE visible
20 Dec 3.9 13:46:46 10° SSW 13:50:55 39° WNW 13:55:05 10° N visible
21 Dec 6.6 01:33:36 10° NW 01:35:47 14° W 01:37:59 10° WSW visible
21 Dec6.812:33:24NNE12:33:24NNE12:23:29SSEvisible
21 Dec6.214:10:30NNW14:10:30NNW14:00:15SWvisible
